Weather History for Miami, FL

Change the Weather History Date:

Saturday, October 15, 2011

  Actual Average Record
Temperature  
Mean Temperature 80 °F 80 °F  
Max Temperature 82 °F 86 °F 91 °F (1954)
Min Temperature 78 °F 74 °F 58 °F (1896)
Degree Days  
Heating Degree Days 0 0  
Month to date heating degree days 0 0  
Since 1 July heating degree days 0 0  
Cooling Degree Days 15 15  
Month to date cooling degree days 242 242  
Year to date cooling degree days 4228 3854  
Growing Degree Days 30 (Base 50)    
Moisture  
Dew Point 70 °F    
Average Humidity 72    
Maximum Humidity 85    
Minimum Humidity 58    
Precipitation  
Precipitation 0.02 in 0.20 in 6.81 in (1999)
Month to date precipitation 6.41 3.79  
Year to date precipitation 51.83 54.05  
Snow  
Snow 0.00 in - - ()
Month to date snowfall 0.0  
Since 1 July snowfall 0.0  
Since 1 September snowfall 0.0  
Snow Depth 0.00 in    
Sea Level Pressure  
Sea Level Pressure 29.98 in    
Wind  
Wind Speed 9 mph (NE)    
Max Wind Speed 18 mph    
Max Gust Speed 24 mph    
Visibility 10 miles    
Events Rain    
T = Trace of Precipitation, MM = Missing Value Source: NWS Daily Summary

Daily Weather History Graph

Daily Weather History Graph

Search for Another Location

Airport:

Trip Planner

Search our weather history database for the weather conditions in past years. The results will help you decide how hot, cold, wet, or windy it might be!

Date:

Astronomy

Oct. 15, 2011 Rise Set
Actual Time 7:19 AM EDT 6:53 PM EDT
Civil Twilight 6:56 AM EDT 7:17 PM EDT
Nautical Twilight 6:29 AM EDT 7:43 PM EDT
Astronomical Twilight 6:03 AM EDT 8:10 PM EDT
Moon 9:13 PM EDT (10/15) 10:19 AM EDT (10/15)
Length of Visible Light 12h 20m
Length of Day
11h 33m
Waning Gibbous, 89% of the Moon is Illuminated
Oct 15
Waning Gibbous
Oct 19
Last Quarter
Oct 26
New
Nov 2
First Quarter
Nov 10
Full

Hourly Weather History & Observations

Time (EDT) Temp. Heat Index Dew Point Humidity Pressure Visibility Wind Dir Wind Speed Gust Speed Precip Events Conditions
12:53 AM 80.6 °F 84.6 °F 71.6 °F 74% 29.95 in 10.0 mi NE 4.6 mph - N/A   Overcast
1:53 AM 80.1 °F 83.6 °F 71.1 °F 74% 29.95 in 10.0 mi NNE 4.6 mph - N/A   Overcast
2:53 AM 80.1 °F 83.6 °F 71.1 °F 74% 29.94 in 10.0 mi NE 5.8 mph - N/A   Overcast
3:53 AM 80.1 °F 83.6 °F 71.1 °F 74% 29.93 in 10.0 mi NNE 3.5 mph - N/A   Clear
4:53 AM 79.0 °F - 71.1 °F 77% 29.92 in 10.0 mi NNE 3.5 mph - N/A   Overcast
5:53 AM 80.1 °F 83.2 °F 70.0 °F 71% 29.93 in 10.0 mi NNE 3.5 mph - N/A   Overcast
6:53 AM 80.1 °F 82.9 °F 69.1 °F 69% 29.94 in 10.0 mi NE 6.9 mph - N/A   Overcast
7:53 AM 80.1 °F 82.7 °F 68.0 °F 67% 29.95 in 10.0 mi ENE 6.9 mph - N/A   Mostly Cloudy
8:53 AM 80.6 °F 83.9 °F 69.8 °F 70% 29.97 in 10.0 mi NE 10.4 mph - N/A   Mostly Cloudy
9:53 AM 81.0 °F 84.1 °F 69.1 °F 67% 30.00 in 10.0 mi NE 11.5 mph - N/A   Mostly Cloudy
10:53 AM 82.0 °F 84.9 °F 68.0 °F 62% 30.00 in 10.0 mi NE 17.3 mph 24.2 mph N/A   Overcast
11:53 AM 82.0 °F 84.9 °F 68.0 °F 62% 30.01 in 10.0 mi ENE 15.0 mph 20.7 mph N/A   Overcast
12:53 PM 80.6 °F 82.7 °F 66.2 °F 61% 30.01 in 10.0 mi NE 10.4 mph 19.6 mph N/A   Overcast
1:53 PM 81.0 °F 82.7 °F 64.9 °F 58% 29.99 in 10.0 mi NE 15.0 mph 21.9 mph N/A   Overcast
2:53 PM 81.0 °F 83.0 °F 66.0 °F 60% 29.99 in 10.0 mi NE 12.7 mph 20.7 mph N/A   Overcast
3:53 PM 81.0 °F 83.3 °F 66.9 °F 62% 29.98 in 10.0 mi NE 11.5 mph 21.9 mph N/A   Overcast
4:53 PM 81.0 °F 83.3 °F 66.9 °F 62% 29.98 in 10.0 mi NE 12.7 mph 20.7 mph 0.00 in Rain Light Rain
5:45 PM 80.6 °F 83.9 °F 69.8 °F 70% 29.98 in 10.0 mi ENE 11.5 mph 18.4 mph 0.00 in Rain Light Rain
5:53 PM 80.6 °F 83.9 °F 69.8 °F 70% 29.98 in 10.0 mi ENE 10.4 mph - N/A Rain Light Rain
6:53 PM 80.1 °F 83.6 °F 71.1 °F 74% 29.99 in 10.0 mi ENE 12.7 mph 20.7 mph 0.00 in Rain Light Rain
7:53 PM 78.1 °F - 72.0 °F 81% 29.99 in 10.0 mi East 10.4 mph - 0.02 in   Overcast
8:53 PM 79.0 °F - 73.0 °F 82% 30.01 in 10.0 mi East 10.4 mph - 0.00 in   Overcast
9:53 PM 79.0 °F - 73.0 °F 82% 30.03 in 10.0 mi ESE 10.4 mph - 0.00 in Rain Light Rain
10:53 PM 78.1 °F - 73.0 °F 84% 30.04 in 10.0 mi East 5.8 mph - 0.00 in   Overcast
11:53 PM 79.0 °F - 72.0 °F 79% 30.03 in 10.0 mi NE 4.6 mph - 0.00 in Rain Light Rain